FW9245 Weather Reports


time (UTC)temp
C
wind
direction
speed
KPH
gust
KPH
rain 1hr
cm
rain 24hr
cm
rain mn
cm
humidity
%
barometer
mb
20260902120043 26 248 6.4 19.3 0.03 0.00 0.03 57
20260902115048 26 268 6.4 16.1 0.03 0.00 0.03 58
20260902114044 26 252 6.4 19.3 0.03 0.00 0.03 59
20260902113057 26 224 8.0 19.3 0.00 0.00 0.00 60
20260902112047 26 243 8.0 17.7 0.00 0.00 0.00 61
20260902111057 26 246 8.0 19.3 0.00 0.00 0.00 61
20260902110051 25 250 8.0 20.9 0.00 0.00 0.00 63
20260902105046 24 252 6.4 20.9 0.00 0.00 0.00 64
20260902104055 23 287 6.4 20.9 0.00 0.00 0.00 65
20260902103047 24 223 6.4 19.3 0.00 0.00 0.00 65
20260902102051 24 225 9.7 17.7 0.00 0.00 0.00 66
20260902101053 24 230 8.0 16.1 0.00 0.00 0.00 64
20260902094044 23 245 6.4 12.9 0.00 0.00 0.00 69
20260902093050 22 246 6.4 12.9 0.00 0.00 0.00 71
20260902092053 22 225 8.0 19.3 0.00 0.00 0.00 71
20260902091051 21 225 6.4 9.7 0.00 0.00 0.00 76
20260902090049 20 222 6.4 11.3 0.00 0.00 0.00 77
20260902085039 19 231 6.4 11.3 0.00 0.00 0.00 79
20260902084037 19 225 6.4 12.9 0.00 0.00 0.00 79
20260902083055 19 224 4.8 11.3 0.00 0.00 0.00 80
20260902082050 19 223 8.0 16.1 0.00 0.00 0.00 80
20260902081047 19 226 4.8 11.3 0.00 0.00 0.00 81
20260902080045 18 219 6.4 12.9 0.00 0.00 0.00 83
20260902075044 18 206 6.4 12.9 0.00 0.00 0.00 84
20260902074055 18 224 6.4 14.5 0.00 0.00 0.00 85
20260902073100 17 225 8.0 16.1 0.00 0.00 0.00 87
20260902072038 17 219 6.4 12.9 0.00 0.00 0.00 88
20260902071051 16 222 6.4 12.9 0.00 0.00 0.00 89
20260902070058 16 221 3.2 11.3 0.00 0.00 0.00 90
20260902065052 15 198 4.8 9.7 0.00 0.00 0.00 91
20260902064041 15 227 6.4 11.3 0.00 0.00 0.00 91
20260902063050 15 228 8.0 16.1 0.00 0.00 0.00 91
20260902062044 15 207 9.7 16.1 0.00 0.00 0.00 92
20260902061045 15 206 8.0 12.9 0.00 0.00 0.00 93
20260902060051 14 219 1.6 8.0 0.00 0.00 0.00 94
20260902055052 14 180 1.6 3.2 0.00 0.00 0.00 94
20260902054046 13 185 0.0 3.2 0.00 0.00 0.00 95
20260902053045 13 177 0.0 3.2 0.00 0.00 0.00 95
20260902052055 13 134 0.0 3.2 0.00 0.00 0.00 95
20260902045044 13 223 3.2 8.0 0.00 0.00 0.00 95
20260902044053 13 229 1.6 4.8 0.00 0.00 0.00 96
20260902043059 13 137 1.6 4.8 0.00 0.00 0.00 96
20260902042049 12 129 0.0 3.2 0.00 0.00 0.00 96
20260902041038 12 137 0.0 1.6 0.00 0.00 0.00 96
20260902040049 12 182 1.6 3.2 0.00 0.00 0.00 96
20260902035036 12 175 1.6 4.8 0.00 0.00 0.00 96
20260902033059 12 220 0.0 1.6 0.00 0.00 0.00 97
20260902032051 12 231 1.6 3.2 0.00 0.00 0.00 97
20260902031038 12 227 0.0 0.0 0.00 0.00 0.00 97
20260902030048 12 226 0.0 0.0 0.00 0.00 0.00 97
20260902025041 12 230 0.0 1.6 0.00 0.00 0.00 97
20260902024045 12 220 0.0 0.0 0.00 0.00 0.00 97
20260902023043 12 222 0.0 0.0 0.00 0.00 0.00 96
20260902022054 12 227 0.0 1.6 0.00 0.00 0.00 96
20260902021053 12 226 0.0 3.2 0.00 0.00 0.00 96
20260902020056 12 250 1.6 3.2 0.00 0.00 0.00 96
20260902015051 12 209 1.6 3.2 0.00 0.00 0.00 96
20260902014048 12 209 0.0 1.6 0.00 0.00 0.00 96
20260902012047 12 208 0.0 3.2 0.00 0.00 0.00 96
20260902011043 13 197 1.6 4.8 0.00 0.00 0.00 96
20260902010046 13 153 0.0 0.0 0.00 0.00 0.00 96
20260902005039 13 152 1.6 3.2 0.00 0.00 0.00 96
20260902003054 13 222 3.2 6.4 0.00 0.00 0.00 95
20260902002045 13 223 3.2 4.8 0.00 0.00 0.00 95
20260902001036 13 220 3.2 6.4 0.00 0.00 0.00 95
20260901235053 13 220 3.2 6.4 0.00 0.00 0.00 95
20260901233050 13 251 3.2 6.4 0.00 0.00 0.00 94
20260901232043 13 242 3.2 8.0 0.00 0.00 0.00 94
20260901231044 13 224 3.2 8.0 0.00 0.00 0.00 93
20260901230100 13 229 3.2 8.0 0.00 0.00 0.00 93
20260901225045 14 225 3.2 8.0 0.00 0.00 0.00 93
20260901224049 14 249 4.8 8.0 0.00 0.00 0.00 93
20260901222057 14 246 4.8 9.7 0.00 0.00 0.00 92
20260901221048 15 224 4.8 8.0 0.00 0.00 0.00 92
20260901215046 15 246 4.8 9.7 0.00 0.00 0.00 91
20260901214046 15 253 4.8 11.3 0.00 0.00 0.00 91
20260901213047 15 245 4.8 12.9 0.00 0.00 0.00 90
20260901212043 15 265 4.8 12.9 0.00 0.00 0.00 90
20260901211102 15 276 4.8 17.7 0.00 0.00 0.00 89
20260901210101 15 294 4.8 17.7 0.00 0.00 0.00 89
20260901205041 16 274 6.4 19.3 0.00 0.00 0.00 89
20260901204045 16 249 6.4 17.7 0.00 0.00 0.00 89
20260901203051 16 245 6.4 20.9 0.00 0.00 0.00 88
20260901202052 16 266 4.8 16.1 0.00 0.00 0.00 88
20260901201043 16 242 6.4 19.3 0.00 0.00 0.00 87
20260901194045 16 253 6.4 17.7 0.00 0.00 0.00 85
20260901193053 16 247 8.0 25.7 0.00 0.00 0.00 85
20260901192046 16 242 6.4 20.9 0.00 0.00 0.00 84
20260901191048 17 275 6.4 17.7 0.00 0.00 0.00 84
20260901190055 17 246 8.0 20.9 0.00 0.00 0.00 83
20260901185049 17 244 8.0 19.3 0.00 0.00 0.00 82
20260901184042 17 253 8.0 17.7 0.00 0.00 0.00 82
20260901183054 17 220 8.0 16.1 0.00 0.00 0.00 81
20260901182039 18 228 8.0 16.1 0.00 0.00 0.00 81
20260901181039 18 253 6.4 11.3 0.00 0.00 0.00 80
20260901180057 19 223 8.0 16.1 0.00 0.00 0.00 79
20260901175040 19 246 6.4 14.5 0.00 0.00 0.00 79
20260901173052 20 249 8.0 17.7 0.00 0.00 0.00 78
20260901171052 20 248 6.4 17.7 0.00 0.00 0.00 76
20260901170055 20 227 6.4 16.1 0.00 0.00 0.00 75
20260901163051 21 251 6.4 19.3 0.00 0.00 0.00 73
20260901162042 21 243 6.4 19.3 0.00 0.00 0.00 72
20260901160100 22 221 9.7 24.1 0.00 0.00 0.00 70
20260901155056 22 222 8.0 16.1 0.00 0.00 0.00 71
20260901154053 22 220 9.7 22.5 0.00 0.00 0.00 70
20260901153043 22 230 9.7 22.5 0.00 0.00 0.00 70
20260901152046 22 244 6.4 17.7 0.00 0.00 0.00 71
20260901151046 22 254 6.4 17.7 0.00 0.00 0.00 71
20260901145040 22 249 8.0 24.1 0.00 0.00 0.00 69
20260901144045 22 272 9.7 22.5 0.00 0.00 0.00 67
20260901143058 23 242 6.4 25.7 0.00 0.00 0.00 65
20260901142049 24 250 6.4 25.7 0.00 0.00 0.00 66
20260901135039 24 310 8.0 24.1 0.00 0.00 0.00 66
20260901133057 25 289 11.3 35.4 0.00 0.00 0.00 63
20260901132052 25 274 12.9 41.8 0.00 0.00 0.00 61
20260901130053 26 294 6.4 32.2 0.00 0.00 0.00 60
20260901124052 26 289 8.0 25.7 0.00 0.00 0.00 59
20260901123046 26 265 8.0 25.7 0.00 0.00 0.00 58
20260901122052 26 248 11.3 35.4 0.00 0.00 0.00 57
20260901121039 26 320 9.7 33.8 0.00 0.00 0.00 56